TimeEDT,TemperatureF,Dew PointF,Humidity,Sea Level PressureIn,VisibilityMPH,Wind Direction,Wind SpeedMPH,Gust SpeedMPH,PrecipitationIn,Events,Conditions,WindDirDegrees,DateUTC
12:00 AM,51.1,42.1,71,29.98,-9999.0,WNW,12.7,21.9,N/A,Rain,Light Rain,300,2013-05-25 04:00:00
1:00 AM,51.1,42.1,71,29.96,-9999.0,NW,12.7,19.6,N/A,Rain,Light Rain,310,2013-05-25 05:00:00
2:00 AM,51.1,42.1,71,29.95,-9999.0,WNW,13.8,21.9,N/A,,Overcast,300,2013-05-25 06:00:00
3:00 AM,51.1,41.0,68,29.94,-9999.0,NW,16.1,28.8,N/A,,Overcast,310,2013-05-25 07:00:00
4:00 AM,53.1,42.1,66,29.94,-9999.0,WNW,13.8,18.4,N/A,,Overcast,300,2013-05-25 08:00:00
5:00 AM,53.1,43.0,69,29.94,-9999.0,WNW,10.4,-,N/A,Rain,Light Rain,300,2013-05-25 09:00:00
6:00 AM,53.1,43.0,69,29.94,-9999.0,WNW,13.8,20.7,N/A,,Overcast,290,2013-05-25 10:00:00
7:00 AM,53.1,43.0,69,29.95,-9999.0,WNW,11.5,-,N/A,,Overcast,300,2013-05-25 11:00:00
8:00 AM,53.1,43.0,69,29.95,-9999.0,WNW,10.4,19.6,N/A,Rain,Light Rain,300,2013-05-25 12:00:00
9:00 AM,55.9,43.0,62,29.96,-9999.0,NW,10.4,20.7,N/A,,Overcast,320,2013-05-25 13:00:00
10:00 AM,61.0,42.1,50,29.94,-9999.0,WNW,18.4,28.8,N/A,,Overcast,300,2013-05-25 14:00:00
11:00 AM,61.0,41.0,48,29.94,-9999.0,WNW,16.1,26.5,N/A,,Overcast,300,2013-05-25 15:00:00
12:00 PM,61.0,37.9,42,29.95,-9999.0,WNW,18.4,36.8,N/A,,Overcast,300,2013-05-25 16:00:00
1:00 PM,63.0,39.0,41,29.95,-9999.0,NW,16.1,28.8,N/A,,Overcast,310,2013-05-25 17:00:00
2:00 PM,59.0,37.9,46,29.96,-9999.0,NW,8.1,26.5,0.00,,Overcast,320,2013-05-25 18:00:00
3:00 PM,64.0,37.9,38,29.95,-9999.0,NW,12.7,35.7,0.00,,Overcast,310,2013-05-25 19:00:00
4:00 PM,64.9,35.1,33,29.94,-9999.0,NW,20.7,35.7,N/A,,Overcast,320,2013-05-25 20:00:00
5:00 PM,63.0,36.0,37,29.95,-9999.0,NW,11.5,20.7,N/A,,Overcast,320,2013-05-25 21:00:00
6:00 PM,64.9,34.0,32,29.96,-9999.0,WNW,17.3,29.9,N/A,,Scattered Clouds,300,2013-05-25 22:00:00
7:00 PM,64.9,34.0,32,29.98,-9999.0,NW,12.7,23.0,N/A,,Mostly Cloudy,310,2013-05-25 23:00:00
8:00 PM,63.0,33.1,33,30.02,-9999.0,NW,11.5,25.3,N/A,,Overcast,320,2013-05-26 00:00:00
9:00 PM,60.1,33.1,36,30.02,-9999.0,NW,6.9,-,N/A,,Overcast,320,2013-05-26 01:00:00
10:00 PM,62.1,36.0,38,30.03,-9999.0,WNW,5.8,-,N/A,,Mostly Cloudy,300,2013-05-26 02:00:00
11:00 PM,61.0,32.0,34,30.03,-9999.0,WNW,11.5,-,N/A,,Clear,300,2013-05-26 03:00:00